When you browse on this site, cookies collect data to enhance your experience and personalize the content and advertising you see.
Visit our Privacy Policy to learn more. By continuing to use the site, you agree to this use of cookies and data.
  • In United Kingdom
  • List of Countries
  • For 7 days
  • Water Temperature
  • Weather Map
  • Weather Widgets
  • user-avatar
    Login

    Hourly Weather São Luís

    Today, 29 March, Sunday

    Time Temperature Precipitation Wind Pressure Humidity
    00:00 +28°C° 0.5 mm 4 mps 758 mmHg 91%
    01:00 +28°C° 0.3 mm 3 mps 757 mmHg 91%
    02:00 +28°C° 0.3 mm 3 mps 757 mmHg 91%
    03:00 +27°C° 0.3 mm 3 mps 757 mmHg 91%
    04:00 +27°C° 0.5 mm 2 mps 757 mmHg 91%
    05:00 +27°C° 0.5 mm 2 mps 757 mmHg 91%
    06:00 +27°C° 0.5 mm 2 mps 757 mmHg 90%
    07:00 +28°C° 0.1 mm 2 mps 757 mmHg 86%
    08:00 +29°C° 0.1 mm 2 mps 758 mmHg 82%
    09:00 +30°C° 0.1 mm 2 mps 758 mmHg 78%
    10:00 +31°C° 0.2 mm 2 mps 758 mmHg 76%
    11:00 +31°C° 0.2 mm 3 mps 758 mmHg 73%
    12:00 +33°C° 0.2 mm 3 mps 758 mmHg 71%
    13:00 +33°C° 0.4 mm 4 mps 757 mmHg 72%
    14:00 +33°C° 0.4 mm 4 mps 756 mmHg 73%
    15:00 +33°C° 0.4 mm 4 mps 755 mmHg 75%
    16:00 +32°C° 0.4 mm 4 mps 756 mmHg 78%
    17:00 +30°C° 0.4 mm 4 mps 756 mmHg 82%
    18:00 +29°C° 0.4 mm 4 mps 756 mmHg 85%
    19:00 +29°C° 0.4 mm 4 mps 756 mmHg 86%
    20:00 +28°C° 0.4 mm 4 mps 757 mmHg 87%
    21:00 +28°C° 0.4 mm 4 mps 757 mmHg 88%
    22:00 +28°C° 1.1 mm 4 mps 757 mmHg 89%
    23:00 +28°C° 1.1 mm 3 mps 757 mmHg 89%

    Tomorrow, 30 March, Monday

    Time Temperature Precipitation Wind Pressure Humidity
    00:00 +28°C° 1.1 mm 3 mps 758 mmHg 90%
    01:00 +27°C° 1.1 mm 3 mps 757 mmHg 90%
    02:00 +27°C° 1.1 mm 3 mps 756 mmHg 89%
    03:00 +27°C° 1.1 mm 3 mps 756 mmHg 89%
    04:00 +27°C° 0.5 mm 2 mps 756 mmHg 90%
    05:00 +27°C° 0.5 mm 2 mps 756 mmHg 90%
    06:00 +27°C° 0.5 mm 1 mps 756 mmHg 91%
    07:00 +28°C° 0.7 mm 1 mps 757 mmHg 89%
    08:00 +29°C° 0.7 mm 2 mps 757 mmHg 86%
    09:00 +30°C° 0.7 mm 2 mps 758 mmHg 84%
    10:00 +30°C° 0.5 mm 2 mps 757 mmHg 82%
    11:00 +31°C° 0.5 mm 3 mps 757 mmHg 79%
    12:00 +31°C° 0.5 mm 3 mps 757 mmHg 77%
    13:00 +32°C° 0.1 mm 4 mps 756 mmHg 74%
    14:00 +33°C° 0.1 mm 4 mps 755 mmHg 71%
    15:00 +33°C° 0.1 mm 4 mps 755 mmHg 68%
    16:00 +32°C° 0 mm 4 mps 755 mmHg 73%
    17:00 +30°C° 0 mm 3 mps 755 mmHg 78%
    18:00 +29°C° 0 mm 3 mps 755 mmHg 83%
    19:00 +29°C° 0 mm 3 mps 755 mmHg 84%
    20:00 +28°C° 0 mm 3 mps 756 mmHg 85%
    21:00 +28°C° 0 mm 3 mps 756 mmHg 87%
    22:00 +28°C° 0 mm 3 mps 756 mmHg 87%
    23:00 +28°C° 0 mm 3 mps 756 mmHg 87%

    Day after tomorrow, 31 March, Tuesday

    Time Temperature Precipitation Wind Pressure Humidity
    00:00 +28°C° 0 mm 2 mps 756 mmHg 88%
    01:00 +28°C° 1.3 mm 2 mps 756 mmHg 89%
    02:00 +27°C° 1.3 mm 2 mps 755 mmHg 90%
    03:00 +27°C° 1.3 mm 2 mps 755 mmHg 92%
    04:00 +27°C° 0.8 mm 2 mps 755 mmHg 92%
    05:00 +27°C° 0.8 mm 3 mps 755 mmHg 93%
    06:00 +26°C° 0.8 mm 3 mps 755 mmHg 94%
    07:00 +27°C° 0.2 mm 3 mps 756 mmHg 90%
    08:00 +28°C° 0.2 mm 2 mps 756 mmHg 87%
    09:00 +29°C° 0.2 mm 2 mps 757 mmHg 83%
    10:00 +30°C° 1 mm 2 mps 756 mmHg 82%
    11:00 +30°C° 1 mm 1 mps 756 mmHg 81%
    12:00 +31°C° 1 mm 1 mps 755 mmHg 80%
    13:00 +31°C° 0.4 mm 1 mps 755 mmHg 78%
    14:00 +31°C° 0.4 mm 2 mps 754 mmHg 76%
    15:00 +32°C° 0.4 mm 2 mps 754 mmHg 74%
    16:00 +31°C° 1 mm 3 mps 754 mmHg 79%
    17:00 +30°C° 1 mm 3 mps 754 mmHg 84%
    18:00 +28°C° 1 mm 4 mps 754 mmHg 89%
    19:00 +28°C° 0.2 mm 4 mps 755 mmHg 89%
    20:00 +28°C° 0.2 mm 4 mps 755 mmHg 89%
    21:00 +28°C° 0.2 mm 3 mps 756 mmHg 89%
    22:00 +28°C° 1.1 mm 3 mps 756 mmHg 89%
    23:00 +28°C° 1.1 mm 3 mps 756 mmHg 90%

    1 April, Wednesday

    Time Temperature Precipitation Wind Pressure Humidity
    00:00 +28°C° 1.1 mm 3 mps 756 mmHg 90%
    01:00 +27°C° 1.3 mm 3 mps 755 mmHg 90%
    02:00 +27°C° 1.3 mm 3 mps 755 mmHg 89%
    03:00 +27°C° 1.3 mm 3 mps 755 mmHg 89%
    04:00 +27°C° 0.8 mm 3 mps 755 mmHg 89%
    05:00 +27°C° 0.8 mm 3 mps 755 mmHg 90%
    06:00 +27°C° 0.8 mm 3 mps 755 mmHg 90%
    07:00 +28°C° 0.5 mm 3 mps 756 mmHg 87%
    08:00 +29°C° 0.5 mm 3 mps 756 mmHg 84%
    09:00 +30°C° 0.5 mm 4 mps 757 mmHg 81%
    10:00 +30°C° 0.5 mm 4 mps 757 mmHg 79%
    11:00 +30°C° 0.5 mm 4 mps 757 mmHg 78%
    12:00 +32°C° 0.5 mm 4 mps 756 mmHg 76%
    13:00 +32°C° 0.5 mm 4 mps 756 mmHg 78%
    14:00 +32°C° 0.5 mm 5 mps 755 mmHg 79%
    15:00 +32°C° 0.5 mm 5 mps 755 mmHg 80%
    16:00 +30°C° 0.2 mm 5 mps 755 mmHg 82%
    17:00 +29°C° 0.2 mm 5 mps 755 mmHg 84%
    18:00 +29°C° 0.2 mm 5 mps 755 mmHg 86%
    19:00 +28°C° 0.2 mm 5 mps 756 mmHg 87%
    20:00 +28°C° 0.2 mm 4 mps 756 mmHg 88%
    21:00 +28°C° 0.2 mm 4 mps 757 mmHg 89%
    22:00 +28°C° 0.8 mm 4 mps 757 mmHg 89%
    23:00 +28°C° 0.8 mm 4 mps 757 mmHg 89%

    2 April, Thursday

    Time Temperature Precipitation Wind Pressure Humidity
    00:00 +28°C° 0.8 mm 5 mps 757 mmHg 89%
    01:00 +28°C° 0.8 mm 4 mps 756 mmHg 90%
    02:00 +28°C° 0.8 mm 4 mps 756 mmHg 90%
    03:00 +27°C° 0.8 mm 4 mps 756 mmHg 91%
    04:00 +27°C° 0.6 mm 4 mps 756 mmHg 91%
    05:00 +27°C° 0.6 mm 4 mps 756 mmHg 91%
    06:00 +27°C° 0.6 mm 3 mps 756 mmHg 91%
    07:00 +28°C° 0.9 mm 4 mps 757 mmHg 90%
    08:00 +29°C° 0.9 mm 4 mps 758 mmHg 89%
    09:00 +30°C° 0.9 mm 4 mps 758 mmHg 88%
    10:00 +30°C° 1 mm 4 mps 758 mmHg 86%
    11:00 +30°C° 1 mm 4 mps 758 mmHg 85%
    12:00 +30°C° 1 mm 5 mps 757 mmHg 84%
    13:00 +30°C° 0.6 mm 5 mps 757 mmHg 83%
    14:00 +30°C° 0.6 mm 5 mps 756 mmHg 83%
    15:00 +30°C° 0.6 mm 5 mps 755 mmHg 83%
    16:00 +30°C° 0.1 mm 5 mps 756 mmHg 84%
    17:00 +30°C° 0.1 mm 5 mps 756 mmHg 85%
    18:00 +29°C° 0.1 mm 5 mps 756 mmHg 86%
    19:00 +29°C° 0.1 mm 4 mps 756 mmHg 87%
    20:00 +29°C° 0.1 mm 4 mps 757 mmHg 88%
    21:00 +28°C° 0.1 mm 4 mps 757 mmHg 89%
    22:00 +28°C° 0.1 mm 4 mps 757 mmHg 89%
    23:00 +28°C° 0.1 mm 4 mps 757 mmHg 90%

    3 April, Friday

    Time Temperature Precipitation Wind Pressure Humidity
    00:00 +28°C° 0.1 mm 3 mps 757 mmHg 90%
    01:00 +28°C° 0.2 mm 3 mps 757 mmHg 91%
    02:00 +28°C° 0.2 mm 3 mps 756 mmHg 91%
    03:00 +28°C° 0.2 mm 3 mps 756 mmHg 92%
    04:00 +27°C° 0.6 mm 3 mps 756 mmHg 92%
    05:00 +27°C° 0.6 mm 3 mps 756 mmHg 93%
    06:00 +27°C° 0.6 mm 3 mps 756 mmHg 93%
    07:00 +28°C° 0.9 mm 3 mps 757 mmHg 91%
    08:00 +29°C° 0.9 mm 3 mps 757 mmHg 89%
    09:00 +30°C° 0.9 mm 3 mps 758 mmHg 87%
    10:00 +30°C° 1 mm 3 mps 758 mmHg 86%
    11:00 +30°C° 1 mm 3 mps 757 mmHg 84%
    12:00 +31°C° 1 mm 3 mps 757 mmHg 83%
    13:00 +30°C° 0.6 mm 4 mps 756 mmHg 83%
    14:00 +30°C° 0.6 mm 4 mps 756 mmHg 84%
    15:00 +30°C° 0.6 mm 4 mps 755 mmHg 84%
    16:00 +30°C° 0.2 mm 4 mps 755 mmHg 86%
    17:00 +29°C° 0.2 mm 4 mps 755 mmHg 88%
    18:00 +28°C° 0.2 mm 4 mps 755 mmHg 90%
    19:00 +28°C° 0.1 mm 3 mps 756 mmHg 90%
    20:00 +28°C° 0.1 mm 3 mps 756 mmHg 91%
    21:00 +28°C° 0.1 mm 3 mps 757 mmHg 91%
    22:00 +28°C° 0 mm 3 mps 757 mmHg 91%
    23:00 +27°C° 0 mm 3 mps 757 mmHg 91%
    Show more